Location: Lourdes
(43.1000°N, 0.0500°W)
Time: 06:29:50
(UTC+00:00)

CZ-2D R/B - Pass Details

Date: 30 November 2020
Orbit: 520 x 538 km, 97.4° (Epoch: 27 January)

Event Time Altitude Azimuth Distance (km) Brightness Sun altitude
Rises 17:59:16 0° 155° (SSE) 2,644 6.7 -16.5°
Reaches altitude 10° 18:01:23 10° 151° (SSE) 1,763 5.7 -16.9°
Maximum altitude 18:05:06 53° 74° (ENE) 654 3.3 -17.5°
Drops below altitude 10° 18:08:51 10° 357° (N) 1,788 5.8 -18.2°
Sets 18:11:01 0° 353° (N) 2,686 6.8 -18.6°
